| time (UTC) | temp F | wind direction | speed MPH | gust MPH | rain 1hr in | rain 24hr in | rain mn in | humidity % | barometer mb |
| 20260831043051 | 50 | 269 | 14.0 | 23.0 | 0.01 | 0.04 | 0.04 | 76 | 1013.2 |
| 20260831041551 | 49 | 224 | 12.0 | 19.0 | 0.01 | 0.04 | 0.04 | 82 | 1013.3 |
| 20260831040047 | 49 | 235 | 11.0 | 18.0 | 0.01 | 0.04 | 0.04 | 81 | 1013.0 |
| 20260831034551 | 49 | 226 | 13.0 | 18.0 | 0.01 | 0.04 | 0.04 | 82 | 1012.9 |
| 20260831033049 | 48 | 217 | 18.0 | 22.0 | 0.00 | 0.03 | 0.03 | 86 | 1012.7 |
| 20260831031546 | 47 | 219 | 12.0 | 17.0 | 0.02 | 0.03 | 0.03 | 89 | 1013.1 |
| 20260831030050 | 47 | 223 | 11.0 | 16.0 | 0.02 | 0.03 | 0.03 | 88 | 1013.1 |
| 20260831024551 | 47 | 250 | 6.0 | 12.0 | 0.02 | 0.03 | 0.03 | 87 | 1013.2 |
| 20260831023042 | 47 | 272 | 9.0 | 18.0 | 0.02 | 0.03 | 0.03 | 85 | 1013.2 |
| 20260831021540 | 49 | 269 | 23.0 | 30.0 | 0.00 | 0.01 | 0.01 | 78 | 1013.0 |
| 20260831020039 | 51 | 245 | 18.0 | 29.0 | 0.01 | 0.01 | 0.01 | 79 | 1012.7 |
| 20260831014540 | 51 | 270 | 19.0 | 26.0 | 0.01 | 0.02 | 0.01 | 77 | 1012.6 |
| 20260831013040 | 49 | 232 | 9.0 | 16.0 | 0.01 | 0.02 | 0.01 | 86 | 1012.6 |
| 20260831011536 | 50 | 252 | 14.0 | 21.0 | 0.01 | 0.02 | 0.01 | 84 | 1012.6 |
| 20260831010035 | 51 | 297 | 18.0 | 26.0 | 0.00 | 0.01 | 0.00 | 77 | 1012.7 |
| 20260831004539 | 54 | 237 | 11.0 | 19.0 | 0.00 | 0.05 | 0.00 | 68 | 1012.4 |
| 20260831003035 | 53 | 233 | 13.0 | 20.0 | 0.00 | 0.05 | 0.00 | 72 | 1012.4 |
| 20260831001534 | 53 | 201 | 13.0 | 20.0 | 0.00 | 0.05 | 0.00 | 71 | 1012.4 |
| 20260831000034 | 55 | 206 | 15.0 | 20.0 | 0.00 | 0.05 | 0.00 | 64 | 1012.4 |
| 20260830234533 | 55 | 257 | 15.0 | 27.0 | 0.00 | 0.06 | 0.00 | 61 | 1012.5 |
| 20260830233032 | 54 | 240 | 16.0 | 27.0 | 0.00 | 0.06 | 0.00 | 65 | 1012.5 |
| 20260830231532 | 55 | 261 | 18.0 | 27.0 | 0.00 | 0.06 | 0.00 | 63 | 1012.3 |
| 20260830230031 | 57 | 219 | 13.0 | 21.0 | 0.00 | 0.06 | 0.00 | 56 | 1012.2 |
| 20260830224531 | 56 | 220 | 14.0 | 25.0 | 0.00 | 0.07 | 0.00 | 57 | 1012.3 |
| 20260830223032 | 58 | 250 | 22.0 | 34.0 | 0.00 | 0.07 | 0.00 | 52 | 1012.2 |
| 20260830221535 | 60 | 226 | 18.0 | 26.0 | 0.00 | 0.07 | 0.00 | 46 | 1012.1 |
| 20260830220032 | 60 | 248 | 19.0 | 28.0 | 0.00 | 0.07 | 0.00 | 46 | 1012.1 |
| 20260830214527 | 60 | 241 | 17.0 | 25.0 | 0.00 | 0.07 | 0.00 | 47 | 1012.3 |
| 20260830213026 | 60 | 230 | 18.0 | 28.0 | 0.00 | 0.07 | 0.00 | 46 | 1012.4 |
| 20260830211526 | 59 | 242 | 16.0 | 27.0 | 0.00 | 0.07 | 0.00 | 47 | 1012.6 |
| 20260830210027 | 59 | 248 | 20.0 | 29.0 | 0.00 | 0.07 | 0.00 | 48 | 1012.4 |
| 20260830204524 | 60 | 235 | 16.0 | 29.0 | 0.00 | 0.07 | 0.00 | 49 | 1012.6 |
| 20260830203024 | 61 | 229 | 21.0 | 29.0 | 0.00 | 0.07 | 0.00 | 46 | 1012.5 |
| 20260830201524 | 60 | 251 | 16.0 | 28.0 | 0.00 | 0.07 | 0.00 | 49 | 1012.4 |
| 20260830200023 | 59 | 240 | 19.0 | 26.0 | 0.00 | 0.07 | 0.00 | 50 | 1012.4 |
| 20260830194523 | 60 | 207 | 21.0 | 30.0 | 0.00 | 0.07 | 0.00 | 50 | 1012.5 |
| 20260830193024 | 59 | 238 | 16.0 | 29.0 | 0.00 | 0.07 | 0.00 | 52 | 1012.6 |
| 20260830191520 | 62 | 239 | 19.0 | 31.0 | 0.00 | 0.07 | 0.00 | 43 | 1012.4 |
| 20260830190019 | 63 | 223 | 19.0 | 29.0 | 0.00 | 0.07 | 0.00 | 44 | 1012.4 |
| 20260830184514 | 60 | 215 | 20.0 | 29.0 | 0.00 | 0.07 | 0.00 | 44 | 1012.5 |
| 20260830183023 | 59 | 233 | 19.0 | 28.0 | 0.00 | 0.07 | 0.00 | 47 | 1012.7 |
| 20260830181510 | 60 | 215 | 16.0 | 24.0 | 0.00 | 0.07 | 0.00 | 47 | 1012.8 |
| 20260830180010 | 61 | 250 | 18.0 | 27.0 | 0.00 | 0.07 | 0.00 | 44 | 1012.8 |
| 20260830174512 | 61 | 206 | 16.0 | 22.0 | 0.00 | 0.07 | 0.00 | 45 | 1012.7 |
| 20260830173004 | 60 | 209 | 15.0 | 22.0 | 0.00 | 0.07 | 0.00 | 45 | 1012.9 |
| 20260830171503 | 59 | 240 | 18.0 | 24.0 | 0.00 | 0.07 | 0.00 | 46 | 1013.1 |
| 20260830170002 | 59 | 241 | 17.0 | 25.0 | 0.00 | 0.07 | 0.00 | 46 | 1013.0 |
| 20260830164601 | 59 | 202 | 17.0 | 24.0 | 0.00 | 0.07 | 0.00 | 46 | 1013.0 |
| 20260830163104 | 58 | 222 | 14.0 | 22.0 | 0.00 | 0.07 | 0.00 | 46 | 1012.9 |
| 20260830161557 | 58 | 217 | 14.0 | 23.0 | 0.00 | 0.07 | 0.00 | 48 | 1013.2 |
| 20260830160106 | 57 | 219 | 15.0 | 23.0 | 0.00 | 0.07 | 0.00 | 48 | 1013.2 |
| 20260830154556 | 57 | 205 | 16.0 | 21.0 | 0.00 | 0.07 | 0.00 | 50 | 1013.3 |
| 20260830153055 | 56 | 224 | 15.0 | 21.0 | 0.00 | 0.07 | 0.00 | 52 | 1013.5 |
| 20260830151554 | 55 | 262 | 15.0 | 22.0 | 0.00 | 0.07 | 0.00 | 52 | 1013.5 |
| 20260830150053 | 54 | 232 | 11.0 | 16.0 | 0.00 | 0.07 | 0.00 | 57 | 1013.5 |
| 20260830144601 | 51 | 221 | 11.0 | 17.0 | 0.00 | 0.07 | 0.00 | 58 | 1013.6 |
| 20260830143054 | 51 | 213 | 9.0 | 12.0 | 0.00 | 0.07 | 0.00 | 60 | 1013.6 |
| 20260830141551 | 51 | 208 | 11.0 | 17.0 | 0.00 | 0.07 | 0.00 | 59 | 1013.8 |
| 20260830140055 | 49 | 226 | 8.0 | 11.0 | 0.00 | 0.07 | 0.00 | 63 | 1013.8 |
| 20260830134559 | 48 | 219 | 8.0 | 14.0 | 0.00 | 0.07 | 0.00 | 65 | 1014.0 |
| 20260830133046 | 49 | 239 | 11.0 | 15.0 | 0.00 | 0.07 | 0.00 | 64 | 1013.9 |
| 20260830131550 | 50 | 236 | 9.0 | 14.0 | 0.00 | 0.07 | 0.00 | 61 | 1013.9 |
| 20260830130055 | 51 | 250 | 6.0 | 10.0 | 0.00 | 0.07 | 0.00 | 59 | 1014.1 |
| 20260830124541 | 52 | 207 | 8.0 | 12.0 | 0.00 | 0.07 | 0.00 | 57 | 1013.9 |
| 20260830123043 | 52 | 211 | 8.0 | 11.0 | 0.00 | 0.07 | 0.00 | 57 | 1013.8 |
| 20260830121540 | 53 | 232 | 7.0 | 15.0 | 0.00 | 0.07 | 0.00 | 58 | 1013.8 |
| 20260830120032 | 53 | 246 | 10.0 | 17.0 | 0.00 | 0.07 | 0.00 | 58 | 1013.7 |
| 20260830114529 | 53 | 237 | 11.0 | 18.0 | 0.00 | 0.07 | 0.00 | 62 | 1013.7 |
| 20260830113029 | 53 | 218 | 7.0 | 15.0 | 0.00 | 0.07 | 0.00 | 68 | 1013.3 |
| 20260830111533 | 53 | 215 | 13.0 | 18.0 | 0.00 | 0.07 | 0.00 | 73 | 1013.4 |
| 20260830110026 | 52 | 205 | 9.0 | 11.0 | 0.00 | 0.07 | 0.00 | 81 | 1013.5 |
| 20260830104524 | 53 | 220 | 10.0 | 14.0 | 0.00 | 0.07 | 0.00 | 78 | 1013.4 |
| 20260830103025 | 55 | 250 | 9.0 | 17.0 | 0.00 | 0.07 | 0.00 | 73 | 1013.4 |
| 20260830101518 | 55 | 215 | 11.0 | 17.0 | 0.00 | 0.07 | 0.00 | 70 | 1013.1 |
| 20260830100018 | 55 | 191 | 8.0 | 12.0 | 0.00 | 0.07 | 0.00 | 72 | 1012.7 |
| 20260830094517 | 55 | 207 | 10.0 | 16.0 | 0.00 | 0.07 | 0.00 | 74 | 1013.1 |
| 20260830093016 | 56 | 213 | 11.0 | 19.0 | 0.00 | 0.07 | 0.00 | 73 | 1012.8 |
| 20260830091528 | 55 | 180 | 12.0 | 21.0 | 0.00 | 0.07 | 0.00 | 78 | 1013.2 |
| 20260830090015 | 55 | 187 | 11.0 | 21.0 | 0.00 | 0.07 | 0.00 | 80 | 1013.4 |
| 20260830084514 | 56 | 177 | 18.0 | 30.0 | 0.00 | 0.07 | 0.00 | 78 | 1013.5 |
| 20260830083012 | 56 | 175 | 12.0 | 27.0 | 0.00 | 0.07 | 0.00 | 80 | 1013.9 |
| 20260830081507 | 56 | 177 | 19.0 | 25.0 | 0.00 | 0.07 | 0.00 | 76 | 1013.7 |
| 20260830080003 | 58 | 178 | 10.0 | 16.0 | 0.00 | 0.07 | 0.00 | 65 | 1013.4 |
| 20260830074604 | 56 | 222 | 7.0 | 10.0 | 0.00 | 0.07 | 0.00 | 71 | 1013.0 |
| 20260830073058 | 55 | 217 | 4.0 | 8.0 | 0.00 | 0.07 | 0.00 | 73 | 1013.0 |
| 20260830071558 | 56 | 219 | 5.0 | 8.0 | 0.00 | 0.07 | 0.00 | 72 | 1013.1 |
| 20260830070054 | 57 | 250 | 4.0 | 7.0 | 0.00 | 0.07 | 0.00 | 69 | 1013.1 |
| 20260830064551 | 56 | 243 | 6.0 | 8.0 | 0.00 | 0.07 | 0.00 | 71 | 1013.2 |
| 20260830063106 | 55 | 256 | 5.0 | 9.0 | 0.00 | 0.07 | 0.00 | 71 | 1013.3 |
| 20260830061557 | 56 | 227 | 4.0 | 6.0 | 0.00 | 0.07 | 0.00 | 68 | 1013.2 |
| 20260830060044 | 55 | 230 | 4.0 | 10.0 | 0.00 | 0.07 | 0.00 | 70 | 1012.7 |
| 20260830054555 | 56 | 236 | 7.0 | 16.0 | 0.00 | 0.07 | 0.07 | 73 | 1012.8 |
| 20260830053042 | 58 | 234 | 4.0 | 8.0 | 0.00 | 0.07 | 0.07 | 65 | 1012.7 |
| 20260830051541 | 60 | 270 | 2.0 | 6.0 | 0.00 | 0.07 | 0.07 | 64 | 1012.7 |
| 20260830050041 | 60 | 111 | 6.0 | 10.0 | 0.00 | 0.07 | 0.07 | 65 | 1012.5 |
| 20260830044556 | 60 | 176 | 9.0 | 17.0 | 0.00 | 0.07 | 0.07 | 67 | 1013.7 |